Weather in Hefei

China     31°49′18″N   117°16′39″E
temp.,
°C
wind,
m/s
gust,
m/s
humid.,
%
clouds,
%
prec.,
mm/h
press.,
hPa
HPBL,
m
18 april, sun
sun1823:00+13nne3349100 0.0 102448
02:00+11nne3350100 0.0 102340
05:00+10ne2251100 0.0 102229
08:00+13ene2344100 0.0 1023192
11:00+18se3337100 0.0 1022954
14:00+19ese2336100 0.0 1020947
17:00+18sse1248100 0.0 101871
20:00+15ese2252100 0.0 101962
19 april, mon
mon1923:00+14ese2360100 0.0 101850
02:00+12ese3369100 0.0 101754
05:00+12ese22740 0.0 101736
08:00+15ese33610 0.0 1018269
11:00+20ese34450 0.0 1017712
14:00+23se44370 0.0 1015910
17:00+23ese35410 0.0 1014848
20:00+18e49570 0.0 1015137
20 april, tue
tue2023:00+17ese4106596 0.0 1015236
02:00+16e3669100 0.0 1014185
05:00+16e367086 0.0 1014208
08:00+15e467899 0.3 1016178
11:00+19ese5662100 0.0 1016457
14:00+21ese675577 0.0 1014688
17:00+21e4959100 0.0 1013300
20:00+19e51065100 0.1 1014317
21 april, wed
wed2123:00+17e4973100 0.3 1015336
02:00+16e4878100 0.3 1013289
05:00+15e4879100 0.1 1012271
08:00+17ese4676100 1.1 1013334
11:00+22se456775 1.8 1013553
14:00+24ese4462100 2.0 1011751
17:00+24ese3565100 0.0 1010309
20:00+21w2381100 0.4 101148
22 april, thu
thu2223:00+19wnw4589100 0.1 1011163
02:00+17nw3592100 0.3 1010214
05:00+17nw3595100 0.9 1010248
08:00+17nw4692100 1.4 1011405
11:00+17nw5793100 0.9 1012438
14:00+16nw479490 3.8 1011447
17:00+18nw4585100 0.1 1010587
20:00+17n2391100 0.1 1012163